Flag for Sweden Weather past 2 weeks in Södertälje, Sweden

Now
45 °F

Fog.


Feels Like: 39 °F
Forecast: 38 / 44 °F
Wind: 10 mph from East

Location: Stockholm Bromma Airport

Current Time: Oct 21, 2014 at 6:52:25 PM

Latest Report: Oct 21, 2014 at 6:20 PM


Visibility: 4 mi

Pressure: 29.68 "Hg

Humidity: 93%

Dew point: 43 °F

Location of SödertäljeLocation

Historic Weather in Södertälje — Graph

°F

Södertälje temperature yesterday

Maximum temperature yesterday: 55 °F (at 12:20 AM)
Minimum temperature yesterday: 45 °F (at 7:50 PM)
Average temperature yesterday: 50 °F

Past Weeks' High & Low Weather Summary

 TemperatureHumidityPressure
High61 °F (Oct 10, 2:20 PM)100% (Oct 8, 9:20 AM)30.48 "Hg (Oct 8, 9:20 AM)
Low32 °F (Oct 17, 5:50 AM)62% (Oct 18, 2:50 PM)29.33 "Hg (Oct 20, 6:50 AM)
Average48 °F88%29.86 "Hg
* Reported Oct 6 5:20 PM — Oct 21 5:20 PM, Södertälje, Weather by CustomWeather, © 2014

Note: Actual official high and low records may vary slightly from our data, if they occured in-between our weather recording intervals... More about our weather records

Advertising

Södertälje weather history for previous 24 hours

 ConditionsComfort  
Time TempWeatherWind HumidityBarometerVisibility
5:20 PM
Oct 21
46 °FFog.12 mph93%29.68 "Hg3 mi
4:50 PM45 °FDrizzle. Fog.5 mph100%29.68 "Hg2 mi
4:20 PM45 °FPartly sunny.5 mph100%29.68 "HgN/A
3:50 PM45 °FFog.8 mph93%29.68 "Hg3 mi
3:20 PM46 °FLight rain. Partly sunny.10 mph82%29.68 "Hg3 mi
2:50 PM46 °FBroken clouds.6 mph87%29.68 "HgN/A
2:20 PM46 °FScattered showers. Partly sunny.6 mph87%29.68 "HgN/A
1:50 PM46 °FBroken clouds.8 mph87%29.68 "HgN/A
1:20 PM46 °FPartly sunny.5 mph82%29.68 "HgN/A
12:50 PM46 °FPartly sunny.7 mph82%29.71 "HgN/A
12:20 PM45 °FPartly sunny.6 mph87%29.71 "HgN/A
11:50 AM45 °FPartly sunny.6 mph87%29.71 "HgN/A
11:20 AM45 °FBroken clouds.6 mph87%29.71 "HgN/A
10:50 AM45 °FPartly sunny.5 mph87%29.71 "HgN/A
10:20 AM45 °FBroken clouds.6 mph87%29.71 "HgN/A
9:50 AM43 °FPartly sunny.5 mph93%29.68 "HgN/A
9:20 AM43 °FPartly sunny.5 mph87%29.68 "HgN/A
8:50 AM43 °FPartly sunny.5 mph87%29.68 "HgN/A
8:20 AM43 °FPassing clouds.6 mph87%29.68 "HgN/A
7:50 AM43 °FPassing clouds.3 mph87%29.68 "HgN/A
7:20 AM43 °FPassing clouds.5 mph87%29.68 "HgN/A
6:50 AM43 °FPassing clouds.5 mph87%29.68 "HgN/A
6:20 AM43 °FPassing clouds.5 mph87%29.65 "HgN/A
5:50 AM43 °FPassing clouds.6 mph87%29.65 "HgN/A
5:20 AM43 °FOvercast.6 mph87%29.65 "HgN/A
4:50 AM43 °FOvercast.5 mph87%29.65 "HgN/A
4:20 AM43 °FOvercast.5 mph87%29.65 "HgN/A
3:50 AM45 °FOvercast.5 mph81%29.65 "HgN/A
3:20 AM45 °FOvercast.5 mph81%29.65 "HgN/A
2:50 AM45 °FOvercast.6 mph81%29.65 "HgN/A
2:20 AM45 °FOvercast.6 mph87%29.65 "HgN/A
1:50 AM45 °FOvercast.6 mph81%29.62 "HgN/A
1:20 AM45 °FOvercast.6 mph87%29.62 "HgN/A
12:50 AM45 °FOvercast.6 mph87%29.62 "HgN/A
12:20 AM45 °FOvercast.6 mph87%29.62 "HgN/A
11:50 PM
Oct 20
45 °FOvercast.6 mph87%29.59 "HgN/A
11:20 PM45 °FOvercast.3 mph87%29.59 "HgN/A
10:50 PM45 °FOvercast.7 mph87%29.59 "HgN/A
10:20 PM45 °FOvercast.8 mph87%29.59 "HgN/A
9:50 PM45 °FPassing clouds.8 mph87%29.59 "HgN/A
9:20 PM45 °FPassing clouds.8 mph87%29.56 "HgN/A
8:50 PM45 °FPartly cloudy.7 mph87%29.56 "HgN/A
8:20 PM45 °FPassing clouds.7 mph93%29.53 "HgN/A
7:50 PM45 °FPassing clouds.8 mph93%29.53 "HgN/A
7:20 PM46 °FPassing clouds.9 mph87%29.53 "HgN/A
6:50 PM46 °FPassing clouds.8 mph87%29.50 "HgN/A
6:20 PM46 °FPartly sunny.7 mph93%29.50 "HgN/A
Weather by CustomWeather, © 2014

See weather overviewHow to use our weather pages